Weather in Deshulan

Russia / Zabaykalsky Krai     50°58′39″N   111°46′06″E
temp.,
°C
wind,
m/s
gust,
m/s
humid.,
%
clouds,
%
prec.,
mm/h
press.,
hPa
HPBL,
m
14 may, fri
fri1400:000wsw34431 0.0 101355
03:00−3wsw32512 0.0 101539
06:00−5sw33645 0.0 101651
09:00+3wnw584417 0.0 10131098
12:00+7nnw5740100 0.0 10122116
15:00+10nw6829100 0.0 10102885
18:00+10nw683394 0.0 10112318
21:00+5wnw225470 0.1 101424
15 may, sat
sat1500:00+1wsw22664 0.0 101823
03:000sw33740 0.0 101936
06:00−2sw33810 0.0 102041
09:00+7wsw36420 0.0 1017582
12:00+14w48210 0.0 10132286
15:00+17w79164 0.0 10103443
18:00+17wnw8102039 0.0 10093389
21:00+10wnw6123496 0.0 1011428
16 may, sun
sun1600:00+7wnw51140100 0.0 1015667
03:00+5w6134750 0.0 1015717
06:00+6w6154829 0.0 1014897
09:00+10w81352100 0.0 10131150
12:00+15wnw8113895 0.0 10102020
15:00+17wnw9123595 0.0 10082563
18:00+17wnw71233100 0.0 10072537
21:00+13wnw6125061 0.0 1009717
17 may, mon
mon1700:00+7wsw237469 0.0 101058
03:00+5sw238899 0.0 101042
06:00+4sw228866 0.0 100834
09:00+11wsw2457100 0.0 1004408
12:00+19w71330100 0.0 9982781
15:00+16wnw10154891 0.0 10001979
18:00+16wnw8124599 0.0 10002079
21:00+11nw6116173 0.0 1003929
18 may, tue
tue1800:00+7nw51265100 0.0 1007906
03:00+4w3674100 0.0 1010288
06:00+1wsw348481 0.0 101283
09:00+7wnw694998 0.0 10111335
12:00+11wnw682524 0.0 10082071
15:00+14wnw692452 0.0 10052571
18:00+15wnw7930100 0.0 10042611
21:00+9w2250100 0.0 100419